Location: Palomar Mountain Lodge
(33.3110°N, 116.8495°W)
Time: 23:59:28
(UTC-08:00)

Cosmos 158 Rocket - Pass Details

Date: 14 June 2018
Orbit: 698 x 794 km, 74.0° (Epoch: 15 November)

Event Time Altitude Azimuth Distance (km) Brightness Sun altitude
Exits shadow 21:36:11 20° 175° (S) 1,749 5.4 -17.3°
Maximum altitude 21:39:47 57° 103° (ESE) 921 4.1 -17.8°
Drops below altitude 10° 21:44:57 10° 26° (NNE) 2,322 6.7 -18.6°
Sets 21:47:21 0° 22° (NNE) 3,239 7.6 -18.9°
